RH
47 51 63 62 63 67 65 69 63 63 71 66 66 67 62 56 49 50 54 61 69 62 66 74 65 63 65 61 62 60 56 57 60 59 58 58 58 58 57 57 56 54 50 43 38 37 38 39 39 42 44 45 46 46 47 47 46 46 47 46 46 46 46 46 45 43 41 39 37 36 35 34 33 33 33 31 29 28 27 27 27 27 27 28 29 29
45 55 63 62 66 67 64 67 62 59 65 63 59 57 59 58 54 53 58 68 69 57 62 71 66 64 65 65 66 64 59 59 59 59 58 58 58 58 58 58 57 56 51 47 44 39 38 39 40 44 48 50 50 48 48 48 47 48 49 49 49 49 49 48 47 45 42 41 40 38 37 36 36 36 35 33 30 29 30 28 28 28 29 31 31 32
49 58 55 61 70 64 62 64 56 54 62 60 62 69 61 50 53 56 59 70 69 56 60 69 66 65 68 69 69 68 62 58 58 57 55 56 57 57 57 57 57 57 56 53 49 45 40 38 38 40 46 52 54 53 52 51 51 51 52 51 51 51 51 51 49 47 44 43 41 40 39 38 38 38 36 35 34 33 32 29 28 29 31 32 33 34
49 48 51 69 68 55 56 61 58 55 55 52 56 65 54 44 48 46 51 68 68 61 66 70 66 66 69 68 67 68 64 62 63 62 59 58 57 56 55 55 56 55 56 56 53 50 44 41 40 38 40 46 51 54 55 55 55 54 53 53 53 54 54 54 52 50 47 45 43 41 41 40 39 40 38 37 38 36 33 30 28 29 30 32 33 34
44 38 55 71 60 54 50 51 61 53 51 63 64 55 44 44 48 44 55 69 67 64 67 65 60 61 66 69 64 62 68 69 66 65 63 61 59 59 58 56 56 56 55 55 54 52 49 45 43 39 38 41 44 49 52 54 56 55 54 54 55 57 57 57 56 53 49 46 44 42 41 41 40 40 40 39 40 38 34 30 28 29 30 31 31 31
37 40 61 61 50 54 47 46 57 49 50 60 56 46 39 39 46 54 64 68 65 61 58 57 53 54 63 74 69 61 68 70 64 66 64 61 61 60 60 57 55 57 55 56 54 51 51 48 45 42 40 41 41 42 44 47 50 52 53 54 57 60 60 59 58 56 52 47 45 43 41 41 40 40 41 42 42 40 37 31 28 28 28 27 27 28
38 46 60 57 50 52 49 48 51 61 63 42 34 44 45 45 52 60 62 61 62 55 50 53 50 51 51 53 65 70 73 72 66 68 67 63 63 60 58 55 53 55 54 55 55 52 51 49 48 46 42 42 40 37 38 42 45 46 48 50 54 58 61 62 61 58 54 50 47 44 43 43 42 43 43 43 43 42 39 31 25 23 23 24 27 30
40 48 48 48 51 49 49 44 44 65 58 24 31 51 52 54 58 67 67 61 62 51 52 57 44 51 50 39 64 81 75 75 71 68 67 64 64 62 58 55 53 53 52 53 54 52 52 50 49 47 42 40 37 34 36 39 41 41 44 46 48 52 57 61 63 62 57 52 49 46 45 44 43 44 45 44 44 42 38 31 24 21 22 26 30 33
43 47 37 38 44 42 39 37 43 57 43 32 53 59 56 64 68 78 78 73 72 53 54 60 32 40 51 38 66 85 72 73 70 62 62 60 62 64 61 59 55 53 52 52 51 49 49 48 47 45 42 39 37 36 37 37 38 40 42 45 47 50 52 56 63 65 61 55 51 48 45 45 44 45 46 44 43 42 38 32 26 22 23 28 31 34
45 50 46 40 37 35 35 45 57 50 33 39 59 58 55 69 77 79 75 72 71 54 54 55 28 32 42 30 52 72 65 69 67 60 62 61 62 65 63 62 59 57 55 52 51 48 46 46 45 44 43 40 38 38 38 37 39 41 44 47 50 50 51 54 60 65 65 59 53 50 47 46 45 45 45 44 42 42 40 33 27 22 19 23 27 31
55 61 62 49 37 38 39 52 66 56 39 40 52 48 35 44 62 72 80 72 55 53 60 51 32 31 36 32 44 54 57 66 60 51 54 56 60 64 65 65 62 62 60 56 55 51 47 46 45 45 45 42 40 41 42 41 41 43 45 48 50 50 51 54 57 63 67 63 56 53 50 48 47 47 45 43 42 42 40 36 31 24 18 17 21 27
51 47 52 54 51 50 38 37 55 62 53 40 39 34 18 26 35 45 70 59 36 49 57 47 42 39 38 36 37 44 57 67 58 43 40 42 47 56 63 68 66 66 64 63 63 59 55 54 51 50 49 45 44 45 45 43 44 46 46 49 52 50 50 54 58 63 67 66 61 56 53 50 49 47 45 44 44 44 42 39 34 27 19 15 20 29
42 38 41 49 51 46 29 21 36 51 47 35 38 45 46 49 35 35 59 44 30 49 45 38 41 37 36 30 24 32 41 49 56 51 45 43 43 48 58 69 72 73 71 69 70 68 65 63 59 57 54 51 51 49 48 46 47 49 49 52 56 51 48 53 59 64 67 67 65 60 57 54 51 48 46 45 44 44 43 41 35 28 21 17 21 29
37 36 36 32 30 37 30 15 17 30 34 33 44 51 54 55 36 39 59 38 27 45 38 35 41 37 35 28 25 27 22 32 51 57 58 57 56 56 61 72 76 77 77 75 75 74 71 68 63 61 60 58 56 52 51 51 50 52 53 55 58 53 49 55 61 64 68 68 66 64 61 57 53 50 47 46 44 44 43 41 36 30 25 21 20 23
27 15 22 19 19 36 40 28 24 31 36 41 46 38 40 54 42 38 53 40 34 54 50 34 38 49 43 28 31 34 36 53 65 71 78 75 74 76 75 78 78 77 78 78 79 77 73 68 65 64 63 60 59 56 55 55 54 55 56 57 59 56 51 55 61 65 68 68 66 66 64 60 56 52 49 46 43 43 43 40 36 31 27 23 21 20
35 17 29 36 33 37 38 43 49 38 27 36 40 25 25 48 54 52 61 55 49 70 80 57 46 56 43 22 30 42 51 61 64 75 83 77 77 82 80 78 77 77 78 77 79 78 72 66 64 63 62 59 59 59 59 59 57 58 58 58 60 58 54 56 62 64 65 65 67 69 67 62 58 53 49 47 45 44 42 40 37 32 29 26 24 21
41 28 47 57 46 41 40 48 57 37 15 20 26 21 25 38 54 60 59 61 62 66 72 60 47 49 34 18 34 49 46 43 50 65 71 70 75 78 77 76 75 75 75 74 76 75 70 65 61 58 56 56 57 58 58 58 59 61 61 61 62 61 60 61 63 63 64 67 70 71 69 65 61 56 52 50 49 44 39 39 38 34 31 30 27 25
42 32 47 54 37 44 58 53 55 51 31 18 15 25 37 40 54 61 51 62 74 64 59 52 47 49 36 26 41 46 35 34 43 51 52 54 60 64 67 68 70 72 71 72 73 70 66 62 57 53 50 52 53 54 56 56 58 62 63 64 64 64 64 64 64 66 69 71 73 72 70 68 63 59 56 54 50 44 39 39 39 36 35 35 33 30
50 29 34 48 35 46 65 50 47 54 40 26 23 29 33 32 46 56 48 50 53 53 63 59 54 57 44 37 42 34 31 38 40 40 41 41 43 49 55 59 64 67 66 68 68 66 63 55 51 49 46 47 49 52 56 57 60 64 67 69 70 70 69 68 70 72 73 74 75 73 71 69 65 62 59 53 47 43 39 40 42 40 41 43 42 38
51 24 23 42 38 42 51 46 51 53 41 38 37 40 41 39 50 53 49 55 50 51 68 60 48 52 50 50 47 34 36 40 35 36 40 42 46 50 54 58 62 63 63 64 62 62 57 49 45 46 47 51 53 56 59 60 63 65 67 70 72 74 75 75 77 77 78 78 76 75 72 68 66 62 56 50 45 41 37 41 46 45 47 52 51 45
50 28 30 41 37 34 33 39 52 48 44 48 44 49 52 43 49 48 46 66 64 56 70 66 48 44 49 53 43 32 37 39 36 39 43 50 55 55 57 60 60 60 60 58 57 56 50 46 46 48 51 55 55 57 58 58 61 62 63 66 68 71 74 77 78 79 82 82 79 79 76 71 69 64 58 51 45 42 40 43 48 50 54 58 56 51
41 34 47 48 34 27 26 39 51 39 40 51 47 54 59 51 55 51 51 76 78 61 67 67 45 30 39 51 42 32 35 38 41 44 47 55 56 53 55 55 54 56 55 54 53 51 48 48 51 52 54 56 56 59 59 60 62 62 63 64 65 69 72 75 78 79 82 83 83 83 80 77 74 68 63 55 46 44 45 48 51 56 62 64 61 57
54 51 53 45 31 23 25 45 60 48 40 42 40 47 59 62 59 48 53 75 76 66 72 81 68 40 33 46 44 34 34 40 49 52 51 53 50 49 50 48 51 53 51 51 49 47 49 50 53 56 58 60 61 62 62 62 63 62 61 61 60 61 63 64 67 70 74 78 81 82 81 80 75 67 62 54 46 46 48 51 57 64 69 70 66 59
64 56 43 44 41 27 28 48 62 58 49 47 50 53 56 64 66 58 64 74 71 65 65 72 72 49 38 55 60 55 55 55 57 56 51 48 44 43 45 46 50 49 47 50 49 50 53 54 58 63 63 65 64 62 63 63 63 63 62 62 60 60 59 59 60 61 63 66 70 74 76 77 76 67 57 49 48 51 53 59 68 73 75 74 67 59
44 48 38 41 40 24 31 50 52 49 50 54 67 67 58 72 90 79 72 77 76 68 58 54 53 39 39 58 62 58 57 48 44 45 43 42 39 40 46 48 47 46 49 53 55 57 60 62 66 67 64 65 64 63 65 64 64 63 61 59 58 60 62 65 67 67 66 66 66 69 71 74 74 63 50 48 52 55 61 69 76 78 77 74 66 56
38 51 39 27 25 20 24 32 36 47 54 53 63 69 58 66 77 67 67 82 80 70 66 61 48 30 29 40 40 37 39 36 36 38 36 38 42 46 50 47 46 50 56 60 63 67 69 69 68 65 63 65 64 65 66 65 64 62 59 59 62 66 71 71 70 68 66 64 63 64 66 66 63 54 48 52 57 63 71 78 80 80 78 71 61 53
59 62 48 33 28 23 17 15 28 46 43 32 42 59 64 65 66 65 77 85 78 77 75 60 47 38 33 34 33 31 34 36 36 35 37 44 49 49 46 47 53 59 62 67 72 73 72 69 65 62 64 64 64 67 69 67 66 64 65 70 73 74 74 70 65 61 57 55 56 59 60 57 55 52 54 59 65 73 79 81 81 80 74 66 57 51
64 54 55 55 40 28 22 18 28 41 33 25 33 44 57 70 70 71 71 62 60 70 61 42 46 54 42 31 30 30 32 35 37 40 45 49 47 45 46 54 64 67 69 75 77 74 70 66 62 62 63 65 68 72 73 69 68 70 74 79 79 76 73 70 67 64 60 56 56 57 57 56 56 58 62 68 75 81 83 83 81 76 69 62 55 51
61 49 60 65 51 43 42 34 37 48 44 43 49 46 52 67 71 68 61 50 52 57 42 32 43 49 39 31 31 32 34 38 43 46 47 47 49 55 61 66 72 75 78 80 75 70 68 65 63 63 64 68 74 77 74 71 72 78 81 83 84 81 79 79 77 75 71 67 66 67 66 65 67 72 77 81 84 85 84 82 78 71 65 59 54 51
55 58 80 80 60 49 51 48 47 55 56 54 57 55 52 57 63 64 58 50 51 54 46 41 46 47 40 36 35 36 39 44 45 42 44 52 63 71 73 75 79 81 81 79 73 68 66 65 64 65 69 75 79 78 75 74 79 83 84 87 90 86 83 85 85 85 85 84 84 85 83 83 84 86 87 87 86 84 82 78 73 68 62 57 54 53
41 63 94 90 64 47 53 60 55 55 61 56 50 48 46 49 56 60 58 56 59 62 58 54 60 60 46 38 43 44 42 43 42 40 47 62 74 78 79 81 84 82 80 77 72 68 66 66 67 70 76 81 80 77 76 79 83 83 84 90 94 90 88 90 90 89 88 86 84 85 85 86 88 87 86 85 82 80 78 73 70 65 60 58 56 54
42 61 77 69 55 45 52 66 63 55 59 59 53 49 45 49 59 60 57 61 62 60 57 57 61 56 40 36 43 40 37 41 42 46 60 73 79 80 83 85 84 82 79 74 71 71 69 69 73 77 82 84 80 77 77 81 83 83 86 94 97 95 93 92 88 82 78 75 74 77 81 81 82 81 79 79 77 74 72 69 65 62 59 57 56 55
60 59 61 58 56 54 57 64 65 58 54 51 50 48 43 45 55 54 48 53 55 48 47 49 45 37 32 36 37 33 39 46 46 56 74 83 82 78 81 84 80 78 76 71 71 73 71 75 80 81 84 83 77 76 77 81 87 90 92 97 100 98 93 86 81 76 74 72 72 75 78 77 77 76 73 73 71 69 67 64 61 60 58 57 57 58
86 64 60 62 57 67 77 67 55 54 52 44 40 43 38 33 39 40 33 35 41 40 42 42 35 31 33 34 32 35 45 49 50 64 79 81 78 75 75 76 73 70 71 70 71 72 75 83 82 78 80 78 74 77 81 85 92 94 96 98 95 91 88 83 79 78 77 75 74 76 77 76 76 74 71 70 68 65 64 62 61 61 60 60 61 62
94 68 66 75 70 77 85 67 47 48 51 42 36 38 34 25 29 33 29 28 30 33 38 37 32 33 34 32 35 43 49 53 61 74 78 71 68 69 70 69 66 66 70 72 73 75 82 84 77 75 79 76 76 85 86 84 87 88 89 90 81 76 80 83 81 80 79 78 77 76 75 75 74 72 70 68 66 65 65 64 64 64 64 65 67 67
89 80 77 83 81 76 75 64 48 42 41 35 31 38 40 33 32 36 39 40 34 31 36 37 35 37 35 34 43 52 57 63 71 77 73 63 62 65 65 64 63 65 69 73 77 83 86 78 72 77 79 75 81 89 83 79 84 86 84 79 68 67 76 82 81 81 81 80 78 77 76 75 74 72 72 70 69 69 68 68 69 70 70 72 73 74
74 81 76 72 74 73 76 76 59 42 40 39 34 36 37 31 29 35 47 50 42 36 38 37 37 38 36 40 52 64 71 75 77 79 71 60 60 61 58 59 63 64 68 74 80 84 80 71 72 78 76 76 87 90 80 76 78 79 81 77 71 75 82 83 83 83 82 81 79 78 77 77 76 76 76 75 75 75 75 75 76 76 77 79 79 80
68 76 70 62 72 78 77 82 75 56 49 46 37 34 39 40 37 39 47 50 44 41 40 39 38 38 39 49 62 75 81 75 72 79 73 59 59 61 56 59 65 65 71 79 82 79 73 71 77 79 77 84 93 90 81 76 71 71 76 80 83 89 91 89 88 87 84 83 82 81 81 81 81 81 80 80 80 80 81 81 81 82 82 83 84 84
70 80 74 61 75 85 76 80 84 63 46 45 40 37 47 54 49 44 51 57 52 42 38 40 41 40 45 59 71 82 85 72 67 77 75 60 57 61 63 67 68 68 76 82 79 74 73 76 81 79 79 91 97 90 83 81 76 74 80 87 92 94 94 94 94 91 89 88 86 85 85 85 85 86 85 86 85 85 86 86 85 86 85 84 86 86
78 87 83 72 82 87 81 88 88 64 48 47 42 44 54 56 48 47 58 66 55 40 40 46 48 48 55 67 79 86 85 74 71 76 70 58 57 64 69 71 69 73 81 80 73 71 72 75 82 84 88 98 102 94 88 85 82 82 89 94 96 95 95 96 95 93 93 93 91 91 91 90 90 90 90 91 92 92 92 91 90 90 89 88 89 89
91 94 90 88 96 95 90 97 91 71 60 54 47 53 56 45 40 48 60 62 49 39 46 54 55 57 65 75 85 87 82 75 73 70 61 58 66 72 72 70 71 78 83 75 69 75 77 76 83 91 95 98 98 96 93 90 87 90 96 100 100 100 100 97 93 93 95 95 96 96 94 92 91 91 92 93 95 96 96 96 96 96 95 95 95 95
82 100 101 96 98 95 92 98 92 71 58 53 54 59 48 36 47 58 56 51 46 45 54 61 63 66 71 79 84 82 79 76 71 65 61 66 75 77 73 72 76 82 80 70 69 81 84 80 88 96 93 88 88 92 96 93 91 95 99 100 101 102 102 99 95 95 96 95 95 95 92 91 90 89 91 93 96 100 100 99 100 100 100 101 101 101
61 82 97 96 91 89 94 100 91 68 52 46 49 52 42 40 59 64 48 43 50 58 63 67 69 71 74 79 81 80 82 81 71 64 67 74 79 77 73 76 82 82 77 71 77 87 86 85 94 98 91 85 86 89 92 91 93 97 98 96 97 97 97 95 93 92 90 88 88 87 86 87 88 87 89 91 95 100 101 99 100 101 101 103 104 104
50 53 69 77 75 81 90 86 69 55 50 42 37 42 42 43 56 57 43 43 58 66 68 70 72 74 76 78 78 78 81 80 73 70 76 82 82 76 74 81 84 79 75 76 85 92 88 88 97 98 91 89 89 89 89 89 93 96 92 89 91 91 90 89 86 84 83 81 81 82 83 86 87 88 90 91 93 99 100 98 99 99 99 101 104 104
48 43 48 53 54 58 59 54 46 46 52 44 33 37 42 41 50 53 44 46 59 65 67 72 74 75 76 74 74 78 80 78 77 79 83 87 84 77 79 85 82 77 78 82 88 93 89 89 96 98 94 89 88 90 92 93 96 97 91 87 89 91 91 91 88 84 80 77 78 80 81 84 84 85 88 89 92 97 98 97 100 100 99 101 105 104
46 40 39 43 47 45 35 31 35 38 44 45 39 42 44 41 46 53 50 52 61 64 66 70 73 75 75 72 74 79 79 79 82 85 86 89 86 81 83 85 79 76 82 87 91 94 92 90 93 98 97 90 85 89 95 96 98 100 94 88 89 92 94 95 92 85 78 74 75 75 77 80 79 78 81 84 87 93 97 98 101 102 100 103 106 105
50 39 36 36 40 41 33 32 34 31 33 39 40 41 44 45 49 56 57 59 63 68 70 69 69 72 72 71 74 79 79 84 89 89 89 91 90 86 85 84 80 80 86 91 94 95 95 93 93 97 100 94 85 88 93 91 90 92 90 86 88 92 94 92 88 82 77 75 75 75 76 80 80 79 80 82 84 89 91 94 99 104 103 103 105 106
45 36 39 39 34 33 31 30 33 34 36 41 42 40 42 50 59 62 63 66 70 72 71 67 67 71 71 71 75 79 83 89 91 90 92 93 93 91 87 83 83 85 87 91 94 95 97 96 94 98 101 95 88 89 92 87 82 82 82 81 83 87 88 85 83 82 81 80 80 80 82 85 86 86 86 85 87 91 92 92 96 101 100 98 100 104
45 39 42 44 39 37 36 30 31 39 44 47 47 42 42 54 65 66 68 73 75 73 68 66 68 70 71 74 78 81 88 91 88 89 95 94 92 93 89 83 86 89 88 89 92 95 98 95 94 99 99 92 88 91 91 84 77 76 77 77 78 82 83 84 87 89 89 89 90 90 92 92 91 92 93 92 91 91 91 92 95 98 97 94 97 102
46 41 42 48 49 48 44 37 37 42 46 47 46 42 46 58 67 70 75 78 77 71 67 68 72 74 74 76 78 83 91 91 85 89 94 91 90 92 90 86 88 91 90 89 91 95 95 92 94 99 97 89 88 92 90 83 76 75 77 78 79 82 86 90 97 99 98 98 99 99 100 99 95 94 96 97 96 94 90 86 88 97 103 101 99 100
41 37 40 49 53 48 38 39 45 44 43 46 47 47 55 64 67 70 75 77 75 70 66 69 76 80 80 78 75 79 88 90 87 90 91 87 88 92 91 88 91 92 91 92 94 95 94 90 92 98 96 89 87 91 90 84 77 76 80 82 85 90 95 99 103 103 102 102 101 101 102 102 98 95 95 96 98 100 99 92 84 84 91 100 104 103
Wind_Speed
5 7 6 3 4 6 7 5 2 2 5 7 5 5 4 3 1 3 3 4 4 4 2 2 1 4 5 6 6 4 2 3 5 5 5 5 5 6 6 7 7 7 11 15 15 16 17 17 17 17 17 17 18 18 18 18 18 17 17 16 15 15 14 13 12 11 11 11 10 10 10 10 9 10 10 11 12 14 14 16 17 18 18 19 19 19
6 7 4 5 6 6 6 2 3 5 6 6 6 5 5 3 1 2 2 5 5 1 1 2 1 5 6 6 6 3 3 6 7 6 6 7 7 6 7 9 8 7 9 12 15 17 19 19 19 19 19 20 20 21 21 21 20 19 19 19 17 16 16 15 14 14 13 12 12 12 11 11 11 10 10 10 11 13 15 16 17 18 18 19 19 19
7 5 5 7 4 2 5 5 5 7 7 5 4 5 3 2 1 3 2 5 5 1 2 1 1 6 6 6 6 5 6 6 6 7 7 8 8 7 8 9 8 8 8 9 13 17 21 22 22 22 23 24 24 23 23 23 23 22 23 22 20 19 18 17 17 16 15 14 14 14 13 12 12 11 11 11 12 13 15 17 17 18 19 19 19 19
5 2 5 5 2 2 5 8 6 7 6 4 5 4 0 3 1 2 3 4 4 2 1 2 1 5 5 4 7 7 7 6 5 7 8 7 8 9 8 8 8 9 9 9 11 16 21 23 24 26 28 28 27 27 28 27 26 26 26 25 24 22 21 20 20 19 18 17 16 16 14 14 14 13 12 13 14 14 16 17 18 19 19 20 20 20
4 3 3 5 5 3 6 8 8 6 4 3 2 4 1 3 1 3 3 2 3 3 3 3 3 5 3 4 8 4 4 7 6 7 9 8 8 8 8 9 9 9 10 9 10 13 19 22 26 30 31 31 31 33 33 32 31 31 30 29 27 25 24 23 22 21 20 19 18 17 16 16 16 15 15 15 15 15 15 17 18 19 19 20 21 21
4 3 2 5 7 7 7 7 6 3 3 4 1 4 3 2 3 2 3 2 3 4 1 3 3 5 3 4 8 3 2 8 5 6 11 10 8 8 9 11 10 9 10 10 12 14 18 23 27 29 31 32 34 37 38 36 35 34 33 32 30 28 27 27 26 24 23 22 21 19 19 19 19 18 18 18 17 16 16 17 17 18 20 20 21 21
2 5 4 5 5 8 8 5 3 2 5 2 1 3 3 3 3 1 0 2 2 2 2 3 2 3 6 4 6 4 4 9 6 7 12 10 8 9 10 11 9 10 10 10 14 16 20 23 25 28 32 34 37 39 39 38 38 37 36 35 34 33 31 30 29 27 26 26 24 23 23 22 22 22 22 20 18 18 17 17 18 19 20 20 20 20
2 6 7 6 6 6 6 4 2 4 5 0 1 2 1 4 5 4 4 3 1 1 2 3 3 2 5 5 4 3 4 8 8 10 12 11 11 11 11 12 11 11 10 9 11 15 21 25 26 30 34 35 38 39 38 38 39 39 39 39 38 36 35 35 32 30 30 29 29 27 26 26 25 26 25 22 19 19 18 18 19 19 19 20 20 20
1 4 5 5 5 4 2 1 3 4 3 3 1 2 1 5 4 4 5 3 1 2 3 3 2 1 5 5 3 4 3 7 9 12 13 12 12 12 12 13 13 12 11 11 12 15 21 26 30 33 35 36 38 38 38 38 39 39 40 40 39 39 40 38 36 34 33 33 32 30 29 29 29 28 26 23 21 20 20 19 19 19 20 20 21 21
1 0 1 4 4 1 2 5 4 5 1 3 3 3 4 4 4 4 4 3 3 2 4 4 1 1 5 6 3 3 1 6 8 9 10 10 10 10 11 12 12 11 9 12 15 20 25 28 32 32 33 36 38 38 38 38 39 39 40 40 40 42 43 42 40 38 37 36 35 34 33 33 32 31 28 25 24 23 21 21 21 21 22 22 23 23
2 2 2 3 2 2 4 4 3 4 3 1 5 2 3 5 4 3 3 3 4 2 6 5 1 2 2 6 3 2 4 6 6 6 7 7 8 8 9 10 10 9 9 10 13 20 27 29 30 29 30 37 39 37 36 38 40 40 41 41 41 44 44 44 43 41 40 39 38 38 38 37 36 34 31 29 28 27 25 24 24 23 23 24 25 24
4 4 1 1 1 1 1 2 1 1 2 3 4 2 2 3 4 3 4 4 2 4 6 4 1 3 2 6 5 5 6 6 6 6 7 8 8 7 8 8 8 7 8 8 8 15 21 24 26 27 30 37 38 35 36 39 40 40 41 41 41 44 45 45 44 43 43 42 41 42 42 41 40 37 34 33 33 31 28 27 25 23 24 25 25 25
3 1 3 3 2 1 2 0 2 5 5 5 5 5 4 2 4 2 4 2 2 5 3 1 3 0 5 9 8 8 11 9 9 9 9 8 8 8 6 5 6 5 6 8 7 10 14 18 23 26 29 34 35 35 38 40 40 39 41 41 41 45 47 46 44 44 44 44 44 46 45 44 43 40 38 37 36 35 32 29 27 25 25 26 26 26
2 4 4 3 1 1 4 3 1 3 4 5 2 4 3 2 3 2 4 3 3 5 4 2 3 3 4 6 9 12 12 9 8 8 7 7 8 8 7 5 6 6 6 7 7 7 11 17 23 25 27 30 32 36 38 38 38 38 39 39 41 45 47 44 43 44 44 45 47 48 47 46 44 42 41 40 39 37 34 31 29 27 26 26 27 27
2 3 3 0 1 1 3 3 4 3 2 2 2 4 3 4 3 3 3 2 4 5 5 3 1 3 3 4 8 9 7 6 4 5 5 6 6 6 7 7 7 8 7 6 6 8 14 20 23 24 26 29 32 35 36 36 37 37 38 40 40 44 47 45 44 44 44 47 49 48 47 47 45 44 42 41 40 39 37 34 30 28 27 26 26 25
3 3 5 2 1 2 2 2 4 5 2 1 1 3 1 3 4 2 3 4 2 3 4 2 3 4 4 7 8 4 5 6 4 4 5 6 5 4 6 7 7 7 7 6 6 8 14 21 23 24 27 30 32 33 34 35 36 35 37 39 39 43 46 44 43 43 46 48 48 46 46 46 45 44 42 42 43 43 40 35 30 28 27 26 25 24
2 3 4 3 3 1 2 3 3 2 0 0 1 1 2 2 5 3 1 1 3 1 4 2 4 5 4 7 8 5 5 6 3 2 4 6 5 4 6 7 6 7 7 6 6 8 13 19 22 24 27 29 31 31 33 34 35 34 35 37 39 42 44 43 43 45 46 46 45 45 45 45 45 44 45 46 46 43 38 33 30 29 27 25 24 23
3 2 4 0 1 2 1 2 2 2 2 3 0 3 2 2 4 4 0 3 4 2 4 2 4 5 3 4 7 7 6 7 6 5 5 6 5 5 7 7 7 7 7 7 7 9 14 17 20 24 26 27 28 30 31 33 33 33 33 35 37 39 41 43 43 43 43 42 42 44 45 45 46 47 49 49 46 41 36 33 32 30 27 25 24 23
3 1 5 1 2 3 3 2 2 4 3 3 2 3 2 1 1 1 1 1 2 3 5 4 4 3 3 5 6 5 5 7 7 6 6 8 6 6 7 7 7 7 6 6 6 7 11 16 19 22 24 26 28 28 29 31 31 31 31 32 34 36 39 41 41 40 40 40 41 43 45 46 46 48 49 48 44 40 37 35 33 30 27 25 23 22
2 1 4 3 1 3 3 2 2 1 3 3 0 0 2 2 4 2 2 2 2 3 5 4 3 3 6 7 5 8 9 7 7 7 7 8 7 6 7 6 7 7 6 6 6 6 10 15 19 21 23 25 26 26 27 27 28 28 29 29 30 33 36 37 38 39 39 40 40 42 43 43 44 45 44 41 39 38 38 36 32 28 25 24 23 22
2 2 3 4 3 2 1 2 5 5 3 2 1 1 1 1 1 1 0 2 3 2 3 4 6 5 6 5 7 9 10 8 8 7 7 7 7 7 7 6 7 6 6 6 6 6 10 15 19 21 23 24 25 25 26 26 26 27 27 28 29 31 32 34 36 37 38 39 39 40 41 42 43 43 40 38 37 37 36 33 28 24 23 23 22 20
1 2 3 3 3 2 4 4 4 6 5 5 4 4 4 3 3 1 3 1 1 3 5 2 8 9 5 5 7 9 8 7 7 6 6 7 8 8 8 6 6 6 6 6 5 7 11 15 18 20 22 23 24 25 26 27 27 28 29 30 30 30 31 32 33 34 35 36 37 38 40 42 44 42 40 38 35 33 31 28 24 21 21 21 21 20
2 3 1 4 4 5 5 3 1 4 4 4 3 3 3 4 5 5 4 3 1 2 2 2 4 9 4 6 7 7 6 6 5 5 5 8 8 8 7 6 6 5 5 6 7 9 12 15 17 19 21 23 24 25 27 27 28 29 30 32 33 34 34 34 35 35 35 35 36 38 40 42 43 40 36 32 28 26 26 23 20 19 20 21 21 20
2 3 1 4 5 4 4 3 2 1 2 1 2 2 4 3 3 5 5 3 3 4 2 1 4 8 5 2 4 3 2 3 4 4 6 8 7 6 6 6 6 5 6 7 7 9 13 15 18 20 22 23 24 25 26 27 29 30 31 32 34 36 36 37 37 37 36 35 35 36 37 39 38 34 28 24 22 22 20 18 17 18 20 21 21 19
1 1 1 2 6 7 6 5 5 3 1 3 3 2 4 4 5 3 2 3 1 7 7 3 8 8 4 3 3 3 3 5 6 5 6 7 6 6 5 5 5 5 6 6 6 8 11 14 17 19 20 21 23 25 26 27 28 29 30 32 34 35 37 37 37 37 37 36 36 36 36 35 31 25 20 20 19 18 16 15 16 18 19 20 20 18
2 3 3 2 3 5 5 5 4 3 2 2 2 3 5 5 6 4 1 2 3 6 7 6 10 10 6 5 6 8 8 8 8 7 7 5 4 5 5 5 5 5 5 5 5 7 9 12 15 17 19 21 22 24 25 26 27 29 30 32 33 33 34 35 35 35 35 33 32 31 29 23 17 12 12 14 14 13 13 14 16 18 19 19 18 16
2 2 4 6 7 7 8 8 3 2 2 4 4 4 6 6 6 5 3 3 5 2 4 9 12 15 16 13 10 11 9 7 8 10 8 6 5 5 5 5 5 4 4 5 6 7 8 10 13 16 18 20 21 23 24 25 26 28 29 30 31 30 30 30 30 30 29 27 25 22 18 12 6 3 6 7 8 9 11 13 15 17 17 17 16 15
4 3 5 7 10 11 10 9 3 1 5 9 8 7 7 7 6 7 7 10 4 3 7 12 9 10 18 16 13 13 10 8 9 9 6 4 3 4 4 3 4 4 4 5 6 8 8 8 11 15 18 19 21 22 22 24 24 25 26 26 27 27 26 26 27 27 26 24 21 19 15 11 6 2 3 5 7 9 12 13 15 15 15 15 15 15
4 4 4 4 8 10 9 10 8 5 7 8 8 10 10 8 9 11 16 16 7 5 14 15 8 10 15 16 16 15 12 11 9 6 2 1 2 2 2 3 4 4 4 6 7 7 7 7 10 14 17 18 19 20 22 23 23 24 24 23 22 23 24 24 25 25 24 21 19 17 14 10 6 3 3 6 8 10 12 13 14 14 14 14 14 15
4 4 2 1 6 9 8 10 9 6 7 8 10 12 11 10 13 14 17 16 10 11 17 18 17 18 16 15 16 14 11 8 6 3 2 2 3 2 3 4 4 4 5 6 6 7 6 8 11 14 16 16 17 20 22 22 22 23 23 22 21 22 24 24 23 22 21 19 17 16 14 12 10 9 9 9 10 10 11 12 12 13 13 14 15 15
2 3 0 3 5 9 5 4 5 3 5 9 13 14 13 11 11 12 14 12 8 11 16 15 16 17 13 10 10 10 7 5 4 3 2 2 2 3 4 5 4 5 5 5 5 6 6 8 11 13 14 15 17 20 21 21 21 22 21 20 19 22 24 23 22 21 20 19 19 18 17 16 14 13 12 11 10 10 10 11 11 12 12 13 14 15
2 3 2 5 3 7 2 5 7 6 6 10 15 17 15 11 8 8 8 7 7 8 10 9 8 10 7 3 4 6 3 4 5 4 2 1 2 4 4 4 4 4 4 5 5 6 6 7 9 11 13 15 18 20 21 21 21 21 20 20 21 23 23 21 21 20 20 20 20 19 18 16 15 13 12 11 11 10 10 10 11 11 12 13 13 14
3 2 0 2 2 6 3 4 6 8 8 9 11 11 10 7 6 5 5 6 8 7 4 6 7 6 3 2 4 4 2 4 5 3 1 2 2 3 3 3 4 3 4 5 5 6 6 7 9 12 14 16 17 19 19 20 20 20 21 21 22 22 21 19 19 18 18 19 18 18 18 16 14 13 12 11 10 10 10 10 10 11 12 13 13 14
3 4 2 2 2 6 6 5 6 6 6 7 6 6 7 7 7 8 8 9 9 7 6 8 8 6 5 5 6 4 3 4 3 2 2 1 1 2 0 1 0 3 4 4 5 6 7 8 10 13 14 15 16 17 18 19 19 19 19 19 19 19 19 18 18 17 17 17 17 16 16 15 14 13 12 11 11 10 10 11 11 12 13 14 14 15
4 4 2 1 2 4 5 6 5 5 7 8 6 5 6 6 8 9 9 11 10 9 10 11 10 9 8 6 3 3 4 4 2 4 3 2 1 1 1 1 1 3 4 4 4 5 7 8 11 12 12 14 15 16 17 18 19 18 17 17 18 19 19 19 18 18 17 17 16 15 14 14 13 12 12 12 11 12 12 13 14 14 15 15 15 16
6 5 2 1 2 2 2 2 2 7 9 10 8 2 3 2 4 3 7 10 11 10 9 9 9 9 7 4 2 3 4 3 1 3 3 2 2 3 1 1 2 3 4 4 5 6 7 9 11 12 12 13 14 15 17 18 18 18 17 17 19 19 18 18 18 18 17 17 16 15 14 13 12 12 12 12 12 13 13 14 15 15 16 16 16 16
7 5 2 2 3 2 2 3 3 8 12 10 4 2 3 3 4 3 4 7 8 8 6 6 6 7 6 4 2 2 3 4 4 3 3 3 2 2 2 2 3 5 6 6 6 6 7 11 12 11 12 13 13 13 16 17 17 17 17 18 19 18 16 17 18 18 17 17 16 15 14 13 12 12 12 12 12 13 14 14 15 15 15 16 16 16
5 4 5 4 2 2 1 4 4 5 7 6 4 4 2 2 5 5 1 5 6 6 6 6 6 7 6 4 2 2 3 4 6 4 3 2 1 2 2 3 5 7 7 5 6 8 10 12 11 11 12 12 11 13 16 17 18 18 17 18 18 16 16 17 17 17 18 17 17 16 15 14 13 13 13 13 14 14 14 14 14 14 14 15 16 16
3 1 4 4 3 1 2 3 3 4 7 6 5 5 2 3 6 6 2 6 6 5 5 6 5 6 6 5 2 2 3 6 8 3 3 2 1 2 2 3 6 7 5 5 7 10 11 11 10 11 12 11 11 14 16 17 19 18 16 16 16 15 16 17 17 17 18 17 17 16 16 15 15 15 15 15 15 14 14 14 14 14 14 15 16 17
3 2 3 4 6 3 3 3 4 5 8 8 6 4 4 4 7 6 5 8 6 5 5 6 5 7 5 4 3 3 2 6 6 1 5 3 2 5 6 5 4 3 3 4 8 10 11 11 10 11 13 11 11 14 16 17 18 16 15 15 15 14 16 16 16 16 16 17 17 16 16 16 16 16 16 16 16 15 15 15 15 15 15 16 17 18
1 1 2 4 5 5 5 5 5 5 9 8 5 5 7 5 5 2 5 7 5 5 6 6 6 6 5 4 4 4 5 5 1 2 4 3 4 6 6 5 3 2 3 4 8 9 9 10 9 9 10 10 10 13 15 16 16 15 14 14 14 14 15 16 16 16 16 17 17 17 17 17 17 17 17 16 16 16 16 16 16 16 17 17 18 19
2 1 1 2 3 4 4 4 4 7 8 5 4 4 6 4 1 4 6 4 5 6 6 5 6 6 5 6 6 5 5 4 1 2 3 4 4 5 3 4 2 4 2 6 8 7 8 9 8 7 8 9 10 12 14 15 15 14 13 13 14 15 16 16 17 17 17 17 18 17 18 17 17 18 18 17 17 18 18 18 17 18 18 18 19 20
5 3 2 3 4 3 1 2 3 7 6 7 9 4 2 4 4 4 3 2 4 6 5 5 6 5 5 6 6 5 5 5 3 2 3 3 4 4 2 2 3 3 3 7 7 6 7 8 7 6 8 10 11 11 12 13 14 13 14 14 15 16 16 17 17 18 18 18 18 18 18 17 18 18 18 18 18 18 19 20 19 19 19 19 20 21
5 6 3 4 4 4 3 5 5 5 5 8 8 4 5 6 5 4 4 3 3 4 5 5 4 5 6 6 5 5 5 5 4 3 3 3 3 2 1 1 3 1 4 6 5 5 6 8 8 8 11 11 11 11 11 12 13 14 15 15 16 17 18 18 18 19 19 19 19 18 18 17 17 17 17 18 18 18 20 20 20 20 20 19 19 20
8 8 5 5 5 5 6 8 7 3 4 7 6 4 5 6 4 5 5 4 3 4 4 3 3 4 6 6 5 4 5 4 4 3 2 3 2 1 2 3 2 2 4 4 5 5 6 8 9 10 12 13 11 10 10 11 12 15 16 17 17 17 18 19 19 19 19 19 19 18 18 18 17 17 17 16 17 18 19 19 20 21 21 20 20 20
6 5 3 2 3 5 7 9 8 6 5 6 7 5 5 5 4 5 5 3 3 4 4 3 4 5 6 5 4 4 4 4 4 3 3 4 2 2 2 2 1 4 4 4 5 5 7 9 10 11 14 14 12 11 11 12 13 15 17 17 17 16 17 18 19 19 19 19 19 18 18 18 18 18 17 17 16 17 18 18 19 20 21 21 21 21
3 3 3 3 3 4 6 6 4 5 5 4 5 6 4 4 4 4 4 4 4 4 4 4 4 4 5 5 5 4 4 4 5 3 3 3 2 3 3 2 4 5 5 5 6 6 8 10 11 13 15 15 14 12 12 14 14 15 15 15 15 15 16 17 18 19 20 20 20 20 19 19 20 20 20 19 18 18 18 18 18 19 21 21 22 22
1 2 3 6 7 7 10 10 5 5 7 6 5 6 4 4 4 3 3 3 3 4 4 4 4 4 4 4 4 5 4 4 4 4 4 3 4 4 3 2 5 6 5 5 6 6 8 10 12 13 15 16 15 13 14 16 15 14 14 14 14 14 16 17 18 19 21 21 21 21 20 20 21 21 21 21 20 20 20 19 19 19 20 20 20 21
4 3 3 4 4 7 12 11 5 5 8 5 4 5 4 5 5 4 2 3 4 4 4 4 4 4 4 5 5 5 5 5 4 5 5 4 4 5 4 4 5 6 6 6 6 7 9 11 13 14 15 16 15 14 16 16 14 13 13 14 14 15 16 18 19 20 22 22 22 22 21 21 21 21 22 22 23 22 22 21 19 19 20 21 19 20
4 5 4 2 3 8 9 6 2 3 6 5 4 6 5 5 6 5 4 3 4 5 5 4 3 3 5 6 6 5 5 4 4 5 5 4 5 6 5 5 5 6 7 6 6 8 9 11 13 14 15 16 15 14 16 16 13 12 13 14 14 15 16 18 20 22 23 24 23 23 22 22 22 22 22 23 24 25 25 25 22 19 19 20 20 19
6 8 6 5 6 9 8 5 4 4 5 5 4 5 6 5 5 5 5 5 5 6 6 6 5 4 4 5 7 7 5 4 5 6 4 4 6 7 5 5 6 7 7 7 7 9 11 12 13 14 16 17 15 14 16 16 13 13 14 14 14 14 16 18 20 23 25 26 25 24 22 22 22 23 23 23 23 24 26 28 28 25 21 19 18 18
Wind_Direction
51 66 38 3 300 302 300 276 205 108 100 110 97 78 86 104 33 296 303 343 34 63 360 347 231 215 222 236 243 243 219 235 252 251 248 249 247 245 247 247 246 244 250 255 249 241 241 243 241 239 236 234 233 231 229 230 230 230 232 234 237 241 245 247 250 251 251 250 251 250 251 257 265 271 278 284 286 292 297 300 301 301 301 301 302 303
50 68 12 311 278 286 316 293 137 84 69 80 96 91 61 76 199 286 309 341 5 53 305 41 122 242 241 247 255 235 225 241 234 230 242 244 243 246 247 250 251 251 258 259 251 242 240 242 243 242 240 239 238 236 235 237 237 238 239 240 241 245 248 251 252 253 253 253 253 256 259 264 271 275 280 283 284 290 295 298 297 297 296 297 298 299
51 54 316 310 294 290 14 37 83 79 72 64 76 100 62 18 287 280 315 353 12 54 266 55 186 262 256 247 254 229 222 242 229 223 235 235 238 242 240 247 252 256 261 256 250 244 240 241 243 244 243 242 242 241 241 243 243 244 245 246 246 246 247 250 251 251 251 252 253 255 259 264 270 274 277 280 283 288 292 295 293 291 291 291 293 295
74 351 312 341 357 103 56 36 51 68 64 56 66 91 18 329 12 241 309 356 13 45 146 137 244 276 266 254 256 231 222 250 247 238 243 235 236 240 239 244 243 247 251 249 250 245 241 241 241 242 243 242 243 244 244 243 244 245 247 249 250 250 250 249 250 250 249 250 252 254 257 261 264 267 270 273 278 283 287 289 286 285 285 286 289 291
89 293 316 32 31 84 79 38 37 54 35 18 89 116 115 314 268 226 290 342 7 19 89 100 353 295 271 257 260 239 214 252 256 256 260 246 242 250 255 252 242 240 244 244 247 244 241 240 240 241 242 243 244 245 244 243 244 246 247 249 251 253 253 251 250 249 248 248 250 252 254 255 257 260 262 264 270 275 278 279 278 277 278 279 282 284
60 321 12 46 27 49 75 46 23 61 53 348 258 151 144 249 251 273 328 21 30 359 5 70 17 298 299 265 257 266 247 255 249 251 261 256 247 248 252 253 245 242 243 242 247 247 243 242 242 243 242 242 244 245 245 245 246 248 250 251 250 252 253 253 252 249 247 247 246 248 248 248 251 253 256 261 268 271 273 273 271 269 270 272 275 276
24 355 47 73 50 46 62 50 356 98 87 12 224 140 134 182 196 195 74 88 70 305 302 45 92 269 307 294 271 296 271 264 267 257 260 259 250 243 245 249 244 243 243 241 246 247 245 244 243 244 243 241 243 247 248 247 248 250 251 252 251 250 252 253 253 249 246 245 245 245 245 248 249 251 257 263 266 268 270 269 266 265 266 268 269 269
358 5 24 46 57 53 58 37 319 120 101 357 164 82 162 166 165 166 131 105 165 234 338 20 114 222 294 282 290 329 290 283 284 268 264 258 249 243 243 246 242 240 237 236 243 242 241 242 241 243 245 244 246 250 250 249 250 251 251 253 252 251 251 252 252 249 246 245 246 246 245 247 248 252 259 263 264 265 267 266 265 265 264 263 264 264
330 15 11 34 54 54 75 265 237 135 113 251 171 49 151 157 153 134 107 85 17 7 324 310 129 191 276 272 318 10 333 295 278 262 260 255 249 243 242 244 241 240 236 232 239 241 241 241 241 243 247 249 250 251 250 251 253 253 253 252 252 252 252 252 251 249 247 246 247 246 245 247 249 252 257 259 258 259 261 263 263 262 260 259 259 259
206 202 175 103 69 16 248 249 202 140 305 274 131 78 52 75 74 78 88 89 49 19 265 260 142 161 275 279 313 25 308 267 261 258 256 252 249 242 240 244 242 242 240 235 239 245 246 245 247 248 250 254 254 252 252 253 254 253 253 252 251 252 253 252 251 249 248 246 245 245 244 245 248 249 252 253 253 254 255 256 257 257 256 255 255 255
310 288 185 113 78 227 242 257 184 171 269 5 96 80 41 34 34 52 52 77 64 316 254 246 171 113 291 281 249 205 218 213 222 259 269 265 261 246 239 243 243 239 240 241 243 249 252 253 255 255 254 256 257 255 253 253 253 252 252 251 250 252 253 252 250 249 248 246 244 245 245 245 246 247 247 247 248 249 249 250 252 253 253 252 251 250
356 10 285 267 265 166 322 271 194 257 296 74 76 74 84 348 4 23 356 40 95 263 256 258 330 105 211 267 247 233 245 216 198 237 261 268 270 258 243 240 242 241 242 246 246 252 256 259 260 256 254 256 258 256 254 253 252 250 250 249 249 251 252 251 250 248 248 246 244 246 245 245 246 245 243 244 246 247 247 247 248 249 249 249 246 245
9 359 302 303 276 102 69 299 332 344 4 43 46 62 82 341 4 7 318 348 203 244 254 287 352 340 226 253 254 253 257 239 216 221 234 248 262 270 271 262 257 251 247 248 246 252 257 258 259 256 254 257 258 257 255 254 252 250 250 248 247 251 253 251 249 248 247 246 245 246 245 245 245 243 242 243 245 246 245 244 243 243 244 243 241 240
348 310 323 347 294 85 92 93 13 329 5 28 61 87 91 75 38 310 282 314 269 266 284 318 339 293 274 271 244 237 248 243 226 229 239 251 263 280 296 301 287 272 257 253 251 256 257 257 259 261 261 262 262 262 260 258 255 252 251 249 247 251 254 251 249 249 247 247 248 247 246 245 244 242 242 242 243 244 245 243 241 241 242 242 241 241
80 312 301 57 260 32 78 128 155 146 48 22 152 120 114 142 140 240 234 238 270 286 299 313 312 218 234 272 237 226 255 280 268 262 273 272 270 285 297 293 282 277 268 260 257 258 261 263 266 269 270 270 269 269 268 265 262 257 254 252 249 252 255 253 250 249 248 249 250 248 246 246 244 243 243 242 243 245 243 241 239 239 241 242 244 244
103 247 256 286 300 81 85 191 135 103 63 316 148 92 81 178 147 159 199 191 225 310 297 268 234 214 219 272 275 263 284 284 265 260 274 277 279 291 286 279 275 275 277 272 266 265 269 273 276 277 277 277 276 276 275 272 268 263 260 258 254 256 258 256 253 252 252 252 252 249 248 247 245 244 243 243 244 244 242 239 239 240 242 243 245 244
87 273 282 337 340 60 154 187 117 82 124 36 54 155 223 172 118 108 276 348 67 320 284 245 248 284 314 294 304 359 332 301 304 296 278 275 286 286 271 272 273 273 278 277 269 269 274 279 282 282 282 283 284 284 282 280 276 271 267 264 262 261 262 260 258 257 256 255 253 252 250 248 246 244 243 244 244 242 238 237 240 241 242 243 244 242
134 286 293 350 108 319 236 157 70 40 116 99 134 218 196 84 76 91 348 350 32 266 272 254 246 286 334 291 320 357 332 302 304 307 304 293 285 272 267 269 270 270 274 275 273 273 277 281 284 288 292 294 294 294 293 292 289 282 276 272 269 268 268 268 266 264 262 259 257 256 254 251 248 246 245 245 243 239 234 234 237 239 240 243 243 240
110 329 301 298 128 318 341 78 7 357 64 105 179 192 121 105 303 62 131 292 336 287 282 281 266 262 217 234 294 302 262 265 283 297 305 294 283 276 281 285 283 284 285 285 287 285 285 289 293 299 306 311 313 312 309 308 304 298 291 285 280 278 278 277 276 274 270 267 263 260 259 256 252 250 247 245 241 236 231 232 234 234 238 243 242 240
89 106 288 305 351 317 358 63 248 296 47 57 129 331 57 144 184 164 146 177 191 268 284 302 315 244 226 219 216 238 240 238 258 279 282 274 274 278 282 288 288 288 291 292 293 289 292 301 312 323 329 332 335 335 333 330 325 319 313 307 301 296 293 290 287 283 279 275 271 267 264 262 259 256 252 248 244 237 232 232 232 232 238 243 243 241
59 115 243 299 335 316 290 206 198 182 146 118 185 251 303 124 159 161 182 141 139 204 241 297 297 254 232 209 198 228 246 234 235 255 265 266 275 277 272 274 280 285 289 291 294 301 315 329 342 352 355 356 357 355 354 350 345 341 336 329 323 316 309 304 299 294 288 282 278 272 269 267 264 261 257 252 247 239 233 231 230 234 241 243 243 243
116 145 204 285 317 254 243 242 193 176 168 156 177 206 193 155 128 146 280 295 106 194 191 226 286 273 234 192 208 229 238 237 232 231 252 271 276 278 277 272 278 287 292 300 320 337 348 357 1 4 4 5 6 3 2 359 356 352 347 343 338 331 324 318 312 306 299 292 285 279 274 271 268 262 256 251 245 236 230 227 229 237 242 244 246 245
146 108 136 264 256 239 255 278 158 167 163 148 186 197 149 136 137 151 232 254 190 236 197 144 277 279 247 189 213 233 227 233 230 215 256 285 278 277 288 293 296 306 319 340 358 3 6 7 6 7 9 11 10 7 4 1 357 353 350 347 343 338 333 328 322 317 310 302 294 287 282 277 272 265 257 249 239 228 224 224 231 240 244 246 247 245
118 82 48 283 293 305 310 331 35 99 110 156 228 176 141 159 150 154 186 184 172 226 224 131 268 274 280 237 234 251 242 256 261 241 258 280 286 295 311 319 327 343 359 9 12 10 9 10 13 15 14 11 8 4 1 358 354 351 348 346 342 338 334 331 327 322 317 310 304 297 290 283 275 267 255 240 225 217 218 225 236 243 245 245 244 243
225 156 97 339 328 332 340 350 346 334 279 215 240 206 166 135 98 119 158 100 221 227 191 199 266 261 265 290 287 290 291 296 297 278 264 279 304 327 332 335 353 14 18 12 7 9 13 18 21 18 11 7 4 1 358 356 353 351 349 347 344 340 336 333 330 326 322 317 313 308 301 291 279 266 244 223 212 209 217 232 242 244 244 242 242 243
213 191 139 140 267 284 293 296 291 278 235 231 251 216 199 164 142 168 159 97 251 232 167 188 261 271 269 282 298 298 298 308 314 304 296 307 329 332 336 360 22 29 16 5 8 18 24 25 20 12 7 5 3 360 357 354 353 352 350 348 346 343 341 339 337 335 332 329 326 324 319 306 287 254 217 203 203 211 226 240 245 246 245 244 245 248
99 213 200 190 206 224 241 248 230 133 228 261 258 230 212 195 166 133 107 192 211 182 185 220 250 279 286 287 292 293 296 309 309 308 320 342 354 345 356 23 25 14 2 6 24 31 27 21 13 8 6 4 1 0 358 355 353 351 349 348 348 349 350 351 352 352 350 348 349 352 352 348 333 234 198 202 215 229 243 250 251 251 251 250 250 253
89 288 242 208 223 236 248 261 269 78 261 257 255 245 224 200 164 151 209 232 190 100 264 245 222 255 278 287 292 295 304 310 303 311 332 343 352 1 16 23 5 356 7 26 36 28 16 10 7 6 5 2 0 359 357 354 351 349 348 347 351 356 360 3 6 6 5 5 7 10 11 9 0 299 227 233 246 255 260 260 260 260 258 254 254 256
123 265 247 208 248 252 257 272 273 261 262 259 253 252 241 211 186 197 229 239 209 207 261 267 252 250 270 286 293 297 306 306 304 319 338 332 29 39 28 6 355 358 21 41 35 18 8 6 6 5 2 358 358 357 354 350 348 347 347 346 352 0 3 4 8 10 11 14 17 17 16 13 6 341 297 282 278 275 272 268 266 263 258 254 254 254
151 253 245 152 286 275 259 265 267 258 267 274 264 254 246 227 212 218 238 245 231 235 256 271 278 273 273 279 285 291 297 296 305 344 40 39 22 14 5 2 2 13 31 34 20 6 5 6 5 2 358 356 356 354 349 346 345 345 343 341 348 355 355 357 3 7 12 16 15 11 7 360 350 337 323 310 299 290 282 274 269 262 256 254 253 250
199 262 294 75 315 290 282 295 297 265 251 271 274 264 252 241 229 231 244 248 241 247 256 264 273 276 274 267 269 280 295 319 337 348 44 79 17 360 4 4 11 25 27 14 359 358 2 5 4 360 355 355 354 350 345 343 342 341 338 336 339 344 347 352 0 6 9 9 5 360 356 350 344 338 332 324 314 303 292 282 273 265 259 254 251 248
177 256 356 56 328 284 331 9 327 308 283 275 276 267 254 240 225 226 233 221 203 224 252 264 269 270 266 245 251 268 302 350 335 325 346 22 15 6 356 360 20 21 3 348 350 357 360 2 3 359 355 354 351 346 343 341 339 338 335 332 334 340 347 354 0 4 5 4 359 355 353 349 346 344 338 331 322 311 299 286 276 268 262 258 256 254
148 174 127 78 268 272 316 356 324 325 318 283 263 247 228 210 207 234 250 223 202 203 237 251 249 254 254 279 297 298 343 341 315 303 338 334 339 341 345 26 28 349 333 347 355 354 357 4 6 360 355 351 348 345 344 342 339 337 336 334 337 345 353 357 359 359 358 358 355 352 351 349 348 346 341 335 327 315 303 291 282 275 271 269 267 265
139 145 173 176 223 267 297 337 332 318 294 267 240 186 178 182 195 218 243 237 215 199 216 243 261 286 298 297 296 293 296 298 282 190 167 198 264 294 313 107 350 314 335 358 352 350 3 13 6 355 350 347 346 347 349 349 347 345 345 347 351 357 358 356 355 353 352 354 353 350 348 346 345 343 338 334 328 318 308 298 291 285 281 278 275 273
152 154 182 188 193 260 306 3 343 269 235 249 265 220 202 204 192 205 239 250 238 229 238 256 272 278 280 279 246 226 261 272 194 158 164 155 140 209 217 217 292 343 357 351 348 2 21 20 1 347 346 348 350 354 356 357 358 359 1 2 3 1 357 352 350 350 349 350 350 348 345 341 339 336 333 329 323 315 308 301 296 293 289 285 281 278
150 154 165 181 195 269 327 80 237 267 273 287 297 256 174 149 145 203 267 260 245 237 234 245 259 264 271 276 220 212 266 288 214 162 156 147 157 167 186 307 357 17 2 356 13 30 31 11 351 343 347 352 356 360 1 1 3 3 2 360 358 355 352 349 348 349 349 348 347 346 342 338 334 331 327 323 315 309 306 301 298 295 291 287 283 279
144 145 162 226 215 209 235 224 254 311 311 303 301 142 144 136 143 183 269 257 238 225 212 219 249 264 270 270 260 284 324 321 291 228 162 157 179 148 77 19 33 26 8 19 40 38 14 355 347 347 351 354 359 2 2 3 3 358 353 352 352 352 350 350 350 350 348 346 344 342 341 337 333 328 325 320 312 308 305 301 298 295 291 287 283 281
152 169 172 198 229 140 175 283 309 327 300 270 240 239 239 139 134 139 190 267 245 216 192 194 230 258 262 255 269 349 7 327 292 250 164 151 181 116 58 47 48 26 15 38 43 18 358 348 348 353 353 352 357 1 1 360 357 354 351 350 353 354 354 353 352 349 345 342 340 338 337 334 330 326 322 317 313 309 306 303 300 296 292 288 285 283
101 48 131 173 259 156 141 238 247 251 257 242 228 239 226 136 119 102 17 290 254 216 189 183 218 248 246 237 232 73 21 315 301 267 168 173 192 141 112 66 43 23 24 50 27 2 352 349 352 356 353 351 356 359 357 353 351 352 351 351 354 355 355 353 349 345 340 337 335 333 332 331 328 324 321 316 313 311 307 304 301 298 295 292 289 288
93 44 117 194 239 209 171 229 238 243 255 250 230 211 178 132 100 74 326 280 236 206 191 177 215 239 224 213 193 141 207 280 302 260 175 175 125 111 102 64 26 23 61 41 4 351 350 352 354 354 353 354 354 352 349 346 347 349 348 349 351 351 351 348 341 338 334 330 329 328 327 327 325 322 320 317 314 312 308 305 304 301 298 296 293 291
144 204 182 215 235 206 198 243 266 261 256 252 235 180 157 124 81 81 258 247 200 199 199 180 207 225 206 196 198 195 222 243 260 139 148 125 102 107 87 43 24 98 92 20 354 352 350 351 353 352 352 355 348 343 342 341 343 346 345 345 345 345 344 339 333 331 328 325 325 324 324 325 324 322 321 319 317 313 310 307 305 302 300 298 295 292
187 209 206 201 221 205 200 231 281 287 262 216 149 129 139 137 198 226 223 201 168 189 200 195 206 209 199 204 211 226 246 246 197 125 104 93 117 124 72 29 77 123 54 354 354 357 349 346 350 346 343 347 341 335 335 337 339 341 340 337 337 337 334 331 328 327 323 322 322 321 322 323 322 321 321 320 318 314 311 309 307 303 301 299 296 293
173 178 219 204 187 169 152 197 266 285 258 153 122 102 169 190 211 212 196 183 177 176 180 199 209 201 197 212 224 234 246 250 233 158 113 111 124 112 40 36 126 129 360 350 353 353 345 341 341 335 332 337 336 333 335 338 338 338 335 331 331 330 327 324 325 323 320 320 319 319 320 320 319 319 318 317 317 313 310 309 307 304 302 299 296 293
185 180 209 224 187 147 163 209 221 240 215 168 152 165 206 210 204 168 166 199 195 172 177 199 209 197 192 206 225 232 238 245 228 176 134 128 121 79 330 155 126 45 343 349 345 341 342 336 328 325 327 333 337 338 340 343 339 334 332 330 329 328 325 324 324 322 320 320 318 318 320 318 317 317 315 314 314 311 308 308 307 305 302 300 296 292
211 192 193 219 208 188 206 224 225 213 200 202 209 210 211 226 219 163 166 193 190 185 192 188 186 189 189 196 209 219 228 224 191 159 146 151 146 313 268 166 118 348 331 335 329 326 334 332 325 322 324 332 340 339 339 343 338 331 329 329 328 326 324 324 324 323 324 324 323 323 323 320 318 317 315 314 313 310 309 309 307 304 302 301 297 291
229 193 168 206 242 260 262 251 242 245 241 226 233 237 226 231 217 165 166 186 183 186 188 170 174 185 183 186 198 212 216 190 161 158 161 159 188 286 237 176 356 338 325 316 312 315 324 329 328 325 324 330 338 337 335 336 332 327 326 326 325 324 323 324 324 325 328 329 330 330 328 325 323 321 320 319 317 313 310 308 305 303 301 298 294 289
265 180 175 227 250 269 277 265 232 238 251 234 235 252 244 218 198 167 171 190 185 179 176 165 166 173 176 186 196 201 194 164 156 181 182 168 221 251 200 194 314 321 312 301 302 310 320 327 330 327 322 323 330 334 331 329 329 328 324 324 326 325 324 325 326 327 328 330 330 330 330 329 327 325 324 323 320 317 314 311 307 302 297 294 292 289
248 158 194 231 230 233 256 264 252 251 263 252 235 245 234 194 192 185 171 169 157 156 165 161 160 171 182 187 180 174 170 156 160 191 197 191 218 220 200 246 294 299 298 294 293 301 313 321 324 321 316 318 324 328 326 326 330 330 325 325 328 327 326 327 329 328 327 328 327 326 327 327 326 325 323 322 320 318 314 312 309 302 295 293 291 286
131 168 205 218 233 254 268 276 292 304 293 279 237 230 213 178 180 185 170 150 145 150 161 159 160 170 170 162 154 153 163 171 176 186 195 205 209 205 216 264 284 284 286 288 287 293 305 316 318 316 313 315 320 321 321 324 329 330 327 327 328 328 327 328 329 328 327 327 325 324 325 325 324 323 322 320 319 317 313 310 308 303 298 297 295 290
146 219 219 181 256 265 265 261 249 279 285 276 236 221 206 175 162 164 171 177 173 173 172 158 138 126 135 146 149 148 161 188 199 191 196 212 211 206 225 268 278 271 273 279 283 290 302 312 314 311 311 314 316 316 317 320 325 330 329 328 326 325 324 325 326 325 325 325 323 321 322 322 322 323 322 319 318 317 314 311 308 300 291 290 291 289
197 224 202 179 230 252 258 243 205 216 258 265 235 205 188 169 158 167 188 200 195 187 177 163 153 142 134 144 153 158 169 193 195 187 198 228 221 212 229 266 271 269 275 278 281 292 306 314 313 309 311 314 314 311 312 315 320 328 329 326 323 320 318 319 320 320 321 322 321 319 319 319 320 322 322 320 319 317 315 314 312 307 298 289 284 281